Simultaneous Nadir Overpasses (SNOs) Predictions

Prediction of SNOs between AQUA and NPP Satellite Orbit:

Table of predicted SNOs for the next 14.0 days since TLE Epoch: 3/2/2014
Index Date (AQUA) Time (AQUA) Lat,Lon (AQUA) SZA (AQUA ) Date (NPP) Time (NPP) Lat,Lon (NPP) SZA (NPP ) Distance(km) Time Diff (sec)
1 03/02/2014 20:12:04 70.81, 105.43 110.19 03/02/2014 20:11:33 70.82, 105.46 110.21 1.10 31
2 03/02/2014 21:00:53 -72.89, -83.33 71.99 03/02/2014 21:01:39 -72.89, -83.33 72.03 0.16 46
3 03/05/2014 11:39:43 -68.51, 50.55 68.51 03/05/2014 11:38:30 -68.51, 50.50 68.41 2.03 73
4 03/05/2014 12:28:14 71.48,-137.59 108.47 03/05/2014 12:28:17 71.48,-137.62 108.47 1.12 3
5 03/05/2014 13:13:03 -81.81, 96.52 87.17 03/05/2014 13:14:16 -81.25, 96.61 87.44 62.41 73
6 03/08/2014 03:55:27 -70.54, 169.20 71.60 03/08/2014 03:54:48 -70.54, 169.26 71.58 2.04 39
7 03/08/2014 04:44:17 72.43, -20.00 106.43 03/08/2014 04:44:55 72.43, -20.04 106.40 1.20 38
8 03/10/2014 19:26:43 55.33, 104.37 122.08 03/10/2014 19:25:30 55.43, 103.70 122.36 44.39 73
9 03/10/2014 20:11:36 -71.04, -74.10 73.17 03/10/2014 20:11:34 -71.03, -74.15 73.15 2.14 2
10 03/10/2014 20:59:53 74.63, 100.64 103.00 03/10/2014 21:01:07 74.58, 100.76 102.94 6.89 74
11 03/13/2014 11:38:39 70.32,-126.89 106.52 03/13/2014 11:37:57 70.33,-126.83 106.54 2.53 42
12 03/13/2014 12:27:26 -72.52, 44.38 75.78 03/13/2014 12:28:01 -72.52, 44.41 75.83 1.25 35
13 03/16/2014 03:09:42 -55.97, 168.94 60.61 03/16/2014 03:08:29 -56.05, 168.29 60.33 41.36 73
14 03/16/2014 03:54:34 71.46, -9.17 104.27 03/16/2014 03:54:31 71.47, -9.12 104.25 1.94 3




NCC Satellite Simultaneous Nadir Overpasses (SNOs) Prediction Service
